Regional Weather Roundup
Issued by NWS Charleston, SC

Current Version | Previous Version | Graphics & Text | Print | Product List | Glossary On
Versions: 1 2 3 4 5 6 7 8 9 10 11 12 13 14 15 16 17 18 19 20 21 22 23 24 25 26 27 28 29 30 31 32 33 34 35 36 37 38 39 40 41 42 43 44 45 46 47 48 49 50
000
ASUS42 KCHS 231510
RWRCHS
REGIONAL WEATHER ROUNDUP
NATIONAL WEATHER SERVICE CHARLESTON SC
1100 AM EDT THU OCT 23 2014

NOTE: "FAIR" INDICATES FEW OR NO CLOUDS BELOW 12,000 FEET WITH NO
SIGNIFICANT WEATHER AND/OR OBSTRUCTIONS TO VISIBILITY.

NOT ALL STATIONS ARE QUALITY CONTROLLED BY THE NATIONAL
WEATHER SERVICE. USE DATA WITH CAUTION...ESPECIALLY
DEWPOINT OBSERVATIONS.

SCZ027-030-031-034>040-042>050-231600-
...SOUTH CAROLINA...

CITY           SKY/WX    TMP DP  RH WIND       PRES   REMARKS
N CHARLESTON   SUNNY     64  46  52 N8        30.10S
WATERFRONT PRK   N/A     61 N/A N/A N7G14       N/A
FORT JOHNSON   NOT AVBL
JOHNS ISLAND   SUNNY     63  46  55 N8        30.10S
PINOPOLIS      NOT AVBL
MONCKS CORNER  FAIR      61  50  67 N3        30.10S
SUMMERVILLE    FAIR      61  46  59 N6        30.11F
BEAUFORT MCAS  SUNNY     62  45  53 N9        30.11S
BEAUFORT ARPT  FAIR      59  46  63 N7        30.11S
HILTON HEAD IS SUNNY     63  48  59 N7        30.12S
GEORGETOWN     NOT AVBL
WALTERBORO     SUNNY     61  39  44 N5        30.12S
ORANGEBURG     SUNNY     60  40  47 N10       30.11S
BARNWELL       FAIR      63  41  45 N6        30.12S
AIKEN          FAIR      59  45  58 NW6       30.14F
MANNING        FAIR      61  45  55 NW8       30.10S
KINGSTREE      NOT AVBL
COLUMBIA       SUNNY     61  41  47 NW8       30.10F
SUMTER         SUNNY     58  43  58 NW8       30.08F
FLORENCE       SUNNY     60  42  51 NW9       30.07F
MYRTLE BEACH   SUNNY     59  43  55 N9        30.06S
N MYRTLE BEACH SUNNY     59  43  55 NW8       30.05S

$$

GAZ063-065-086>088-099>101-113>116-118-119-134-136>141-150-231600-
...GEORGIA...

CITY           SKY/WX    TMP DP  RH WIND       PRES   REMARKS
SAVANNAH ARPT  SUNNY     63  43  48 NE7       30.12F
HUNTER AAF     SUNNY     61  45  56 N6        30.09F
FORT STEWART   SUNNY     60  45  57 CALM      30.10F
STATESBORO     NOT AVBL
SYLVANIA       SUNNY     65  50  57 N5        30.13F
CLAXTON        FAIR      61  46  59 NE5       30.13S
THOMSON        SUNNY     57  50  76 CALM      30.17F
AUGUSTA-BUSH   SUNNY     60  39  45 N7        30.13S
AUGUSTA-DANIEL SUNNY     59  40  49 NW7       30.13S
SWAINSBORO     FAIR      63  45  51 MISG      30.13F
VIDALIA        SUNNY     61  46  59 E3        30.13S
ALMA           SUNNY     61  45  55 CALM      30.12S
WAYCROSS       SUNNY     64  50  59 E3        30.11F
JESUP          FAIR      63  50  63 NE6       30.11F
BRUNSWICK      SUNNY     64  52  63 N3        30.11S
SAINT SIMONS   SUNNY     65  53  65 NE8       30.10S

$$

SCZ027-028-034-036>038-045-046-048>050-GAZ119-141-231600-
...LAKE AND SUPPLEMENTAL COASTAL OBSERVATIONS...

STATION/POSITION TIME  TEMP    WIND        PRES    WAVE   SWELL
                       AIR SEA DIR/SP/G            HT/PER HT/PER/DIR
                 (UTC) (F)     (DEG/KT/KT) (MB)    (FT/S) (FT/S/D)
UPR LAKE MARION  NOT AVBL
WINYAH BAY       1400   54     320/  8     1018.0S
LAKE MURRAY      1400   56     320/  5/  9 1019.3S
ACE BASIN NERRS  1400   55      10/  3     1019.0S
FORT PULASKI     1500   58      10/  5/  7 1019.6F
SAPELO ISLAND    NOT AVBL

$$

ANZ835-935-AMZ111-154-330-350-352-354-374-450-454-472-231600-
...C-MAN AND BUOY OBSERVATIONS...

STATION/POSITION TIME  TEMP    WIND        PRES    WAVE   SWELL
                       AIR SEA DIR/SP/G            HT/PER HT/PER/DIR
                 (UTC) (F)     (DEG/KT/KT) (MB)    (FT/S) (FT/S/D)
FOLLY BEACH CMAN 1400   58     360/  9/ 11 1019.4R
BUOY 41004       1500   62 78  350/  8/ 10 1017.9R   3/ 5   3/ 5
BUOY 41008       1500   64 75   10/ 10/ 12 1018.8R   3/ 6   2/ 60/ 6
5E ST. MARYS GA  1500      76                N/A     3/ 5
FRYING PAN BUOY  1500   59 74  330/ 10/ 14 1017.5R   4/ 4   2/170/10
BUOY 41025       NOT AVBL
CAPE LOOKOUT NC  1400   57     320/ 13/ 16 1015.1S
BUOY 41002       1430   71 78  300/ 17/ 19 1014.9R   8/ 8   5/360/ 9
BUOY 41010       1500   74 81   30/  8/ 12 1016.3S   4/ 6   3/360/ 6
BUOY 41012       NOT AVBL
ST AUGUSTINE FL  1500   70      30/ 13/ 15 1018.6R
CAPERS NEARSHORE NOT AVBL
FRIPP NEARSHORE  NOT AVBL


$$



USA.gov is the U.S. government's official web portal to all federal, state and local government web resources and services.